Bryce Canyon, UT

8:54 PM MDT on April 24, 2017 (GMT -0600)
Bryce Canyon

Weather History for KBCE - May, 2014

Change the Weather History Date:

Saturday, May 3, 2014

  Actual Average Record
Temperature  
Mean Temperature 51 °F -  
Max Temperature 73 °F 60 °F 73 °F (2004)
Min Temperature 30 °F 27 °F 14 °F (1967)
Degree Days  
Heating Degree Days 14    
Growing Degree Days 1 (Base 50)    
Moisture  
Dew Point 18 °F    
Average Humidity 32    
Maximum Humidity 61    
Minimum Humidity 12    
Precipitation  
Precipitation 0.00 in - - ()
Sea Level Pressure  
Sea Level Pressure 29.93 in    
Wind  
Wind Speed 10 mph (SW)    
Max Wind Speed 21 mph    
Max Gust Speed 32 mph    
Visibility 10 miles    
Events      
Averages and records for this station are not official NWS values.
T = Trace of Precipitation, MM = Missing Value Source: NWS Daily Summary

Daily Weather History Graph

Daily Weather History Graph

Search for Another Location

Airport or City:

Trip Planner

Search our weather history database for the weather conditions in past years. The results will help you decide how hot, cold, wet, or windy it might be!

Date:

Astronomy

May. 03, 2014 Rise Set
Actual Time 6:30 AM MDT 8:20 PM MDT
Civil Twilight 6:02 AM MDT 8:49 PM MDT
Nautical Twilight 5:27 AM MDT 9:23 PM MDT
Astronomical Twilight 4:51 AM MDT 10:00 PM MDT
Moon 10:04 AM MDT (5/3) No Moon Set
Length of Visible Light 14h 47m
Length of Day
13h 50m
Waxing Crescent, 20% of the Moon is Illuminated
May 3
Waxing Crescent
May 6
First Quarter
May 14
Full
May 21
Last Quarter
May 28
New

Hourly Weather History & Observations

Time (MDT) Temp. Windchill Dew Point Humidity Pressure Visibility Wind Dir Wind Speed Gust Speed Precip Events Conditions
12:53 AM 37.9 °F 30.0 °F 19.0 °F 47% 29.99 in 10.0 mi West 12.7 mph - N/A   Clear
1:53 AM 33.1 °F 24.9 °F 19.0 °F 56% 29.99 in 10.0 mi West 10.4 mph - N/A   Clear
2:53 AM 34.0 °F - 18.0 °F 52% 29.98 in 10.0 mi Calm Calm - N/A   Clear
3:53 AM 32.0 °F 23.6 °F 18.0 °F 56% 29.98 in 10.0 mi West 10.4 mph - N/A   Clear
4:53 AM 32.0 °F 23.6 °F 19.0 °F 59% 29.97 in 10.0 mi West 10.4 mph - N/A   Clear
5:53 AM 30.9 °F 23.5 °F 19.0 °F 61% 29.98 in 10.0 mi West 8.1 mph - N/A   Clear
6:53 AM 30.9 °F 26.2 °F 18.0 °F 59% 29.99 in 10.0 mi West 4.6 mph - N/A   Clear
7:53 AM 42.1 °F 38.4 °F 19.9 °F 41% 29.96 in 10.0 mi West 5.8 mph - N/A   Clear
8:53 AM 54.0 °F - 21.0 °F 28% 29.96 in 10.0 mi Calm Calm - N/A   Clear
9:53 AM 64.0 °F - 18.0 °F 17% 29.95 in 10.0 mi Variable 3.5 mph - N/A   Clear
10:53 AM 66.9 °F - 15.1 °F 14% 29.97 in 10.0 mi WSW 8.1 mph 20.7 mph N/A   Clear
11:53 AM 68.0 °F - 16.0 °F 14% 29.95 in 10.0 mi SW 13.8 mph - N/A   Clear
12:53 PM 71.1 °F - 16.0 °F 12% 29.92 in 10.0 mi SW 18.4 mph 27.6 mph N/A   Clear
2:53 PM 72.0 °F - 17.1 °F 12% 29.91 in 10.0 mi SW 15.0 mph 25.3 mph N/A   Clear
3:53 PM 71.1 °F - 17.1 °F 13% 29.90 in 10.0 mi WSW 20.7 mph 27.6 mph N/A   Clear
4:53 PM 72.0 °F - 19.9 °F 14% 29.88 in 10.0 mi SW 16.1 mph 25.3 mph N/A   Clear
5:53 PM 70.0 °F - 14.0 °F 12% 29.88 in 10.0 mi SW 19.6 mph 32.2 mph N/A   Clear
6:53 PM 64.0 °F - 14.0 °F 14% 29.91 in 10.0 mi SW 9.2 mph 19.6 mph N/A   Clear
7:53 PM 59.0 °F - 15.1 °F 18% 29.87 in 10.0 mi SSW 6.9 mph - N/A   Clear
8:53 PM 55.0 °F - 15.1 °F 21% 29.85 in 10.0 mi South 11.5 mph - N/A   Clear
9:53 PM 45.0 °F 40.1 °F 19.0 °F 36% 29.86 in 10.0 mi South 9.2 mph - N/A   Clear
10:53 PM 43.0 °F 40.3 °F 19.0 °F 38% 29.86 in 10.0 mi South 4.6 mph - N/A   Clear
11:53 PM 39.0 °F - 17.1 °F 41% 29.87 in 10.0 mi Calm Calm - N/A   Clear